#timestamp,LO_Frequency,Hit,StdDev 
1543590015.2,286047001.6,N
1543590035.1,286047000.0,N
1543590036.0,286047000.0,N
1543590055.8,286046998.9,N
1543590075.6,286047000.7,N
1543590095.5,286047002.8,N
1543590115.3,286047000.9,N
1543590135.1,286047001.2,N
1543590155.9,286047002.6,N
1543590175.7,286046999.8,N
1543590195.6,286046998.8,N
1543590215.4,286047000.6,N
1543590235.2,286047000.2,N
1543590255.1,286047002.5,N
1543590256.0,286047002.5,N
1543590275.8,286047002.7,N
1543590295.6,286047002.3,N
1543590315.5,286047002.5,N
1543590335.3,286047001.8,N
1543590355.2,286047002.7,N
1543590375.9,286047002.3,N
1543590395.7,286047002.8,N
1543590415.6,286047002.4,N
1543590435.4,286046999.9,N
1543590455.3,286047000.2,N
1543590475.1,286047001.1,N
1543590476.0,286047001.1,N
1543590495.8,286046998.5,N
1543590515.7,286047000.9,N
1543590535.5,286047000.1,N
1543590555.3,286047000.4,N
1543590575.2,286047001.0,N
1543590595.0,286046998.2,N
1543590595.9,286046998.2,N
1543590615.8,286046998.9,N
1543590635.6,286046999.2,N
1543590655.4,286046998.4,N
1543590675.3,286047000.4,N
1543590695.1,286046999.7,N
1543590715.9,286047002.1,N
1543590735.7,286046999.8,N
1543590755.5,286047000.7,N
1543590775.4,286046999.9,N
1543590795.2,286047000.6,N
1543590815.0,286047000.0,N
1543590815.9,286047000.0,N
1543590835.8,286046998.6,N
1543590855.6,286046998.3,N
1543590875.5,286047001.2,N
1543590895.3,286047001.2,N
1543590915.1,286047000.2,N
1543590935.9,286046998.7,N
1543590955.7,286046999.9,N
1543590975.5,286046999.9,N
1543590995.4,286047002.5,N
1543591015.2,286047002.6,N
1543591035.1,286047002.1,N
1543591036.0,286047002.1,N
1543591055.8,286047000.3,N
1543591075.6,286047000.2,N
1543591095.5,286047000.0,N
1543591115.3,286046999.7,N
1543591135.1,286047001.2,N
1543591155.9,286046998.3,N
1543591175.7,286046998.4,N
1543591195.6,286047001.2,N
1543591215.4,286046998.3,N
1543591235.2,286047000.9,N
1543591255.1,286047000.6,N
1543591256.0,286047000.6,N
1543591275.8,286046998.5,N
1543591295.6,286046996.5,N
1543591315.5,286046995.6,Y
1543591335.3,286046995.4,P
1543591355.2,286046997.5,N
1543591375.9,286046997.0,N
1543591395.7,286046997.7,N
1543591415.6,286046996.8,N
1543591435.4,286046997.6,N
1543591455.3,286046996.8,N
1543591475.1,286046996.9,N
1543591476.0,286046996.9,N
1543591495.8,286046997.2,N
1543591515.7,286046995.4,Y
1543591535.5,286046999.5,P
1543591555.3,286046997.4,N
1543591575.2,286046996.9,P
1543591595.0,286046998.6,N
1543591595.9,286046998.6,N
1543591615.8,286046998.6,N
1543591635.6,286046998.2,N
1543591655.4,286046998.7,N
1543591675.3,286046999.4,N
1543591695.1,286046996.5,Y
1543591715.9,286047001.2,P
1543591735.7,286047001.1,N
1543591755.5,286047000.5,N
1543591775.4,286047000.6,N
1543591795.2,286047000.2,N
1543591815.0,286047000.3,N
1543591815.9,286047000.3,N
1543591835.8,286047002.2,N
1543591855.6,286047001.9,N
1543591875.5,286047004.3,Y
1543591895.3,286047002.6,P
1543591915.1,286047001.0,N
1543591935.9,286046998.4,N
1543591955.7,286047001.1,N
1543591975.5,286047000.7,N
1543591995.4,286047002.8,N
1543592015.2,286046999.9,N
1543592035.1,286046999.8,N
1543592036.0,286046999.8,N
1543592055.8,286047002.4,N
1543592075.6,286047002.2,N
1543592095.5,286047000.1,N
1543592115.3,286047001.7,N
1543592135.1,286047001.3,N
1543592155.9,286047002.8,N
1543592175.7,286047002.8,N
1543592195.6,286047000.9,N
1543592215.4,286047001.5,N
1543592235.2,286047002.5,N
1543592255.1,286047001.9,N
1543592256.0,286047001.9,N
1543592275.8,286047001.9,N
1543592295.7,286047003.7,Y
1543592315.5,286047001.0,P
1543592335.3,286047000.2,N
1543592355.2,286047000.0,N
1543592375.0,286047000.0,N
1543592375.9,286047000.0,N
1543592395.7,286047000.4,N
1543592415.6,286047001.1,N
1543592435.4,286047000.7,N
1543592455.3,286047000.0,N
1543592475.1,286047002.5,Y
1543592495.8,286047000.2,P
1543592515.7,286047002.6,P
1543592535.5,286047001.7,N
1543592555.4,286047000.1,N
1543592575.2,286046999.0,N
1543592595.0,286046998.2,N
1543592595.9,286046998.2,N
1543592615.8,286046998.4,N
1543592635.6,286046999.3,N
1543592655.4,286046998.2,N
1543592675.3,286046999.4,N
1543592695.1,286046999.1,N
1543592715.9,286046999.9,N
1543592735.7,286046999.8,N
1543592755.5,286047000.3,N
1543592775.4,286046999.9,N
1543592795.2,286046998.1,N
1543592815.0,286047000.4,N
1543592816.0,286047000.4,N
1543592835.8,286046998.3,N
1543592855.6,286046998.7,N
1543592875.5,286047000.9,N
1543592895.3,286046999.3,N
1543592915.1,286046997.0,N
1543592935.9,286046996.9,N
1543592955.7,286046999.4,N
1543592975.5,286047001.0,N
1543592995.4,286047000.1,N
1543593015.2,286047000.4,N
1543593035.1,286046999.3,N
1543593036.0,286046999.3,N
1543593055.8,286046999.3,N
1543593075.6,286046998.5,N
1543593095.5,286046998.6,N
1543593115.3,286046998.5,N
1543593135.2,286046998.1,N
1543593155.9,286046999.2,N
1543593175.7,286046998.5,N
1543593195.6,286047000.4,N
1543593215.4,286047000.6,N
1543593235.2,286046999.7,N
1543593255.1,286047002.4,N
1543593256.0,286047002.4,N
1543593275.8,286047002.8,N
1543593295.7,286046999.7,N
1543593315.5,286047000.8,N
1543593335.3,286047000.5,N
1543593355.2,286046999.5,N
1543593375.0,286046998.8,N
1543593375.9,286046998.8,N
1543593395.7,286047000.5,N
1543593415.6,286046998.8,N
1543593435.4,286046998.8,N
1543593455.3,286046999.2,N
1543593475.1,286046998.8,N
1543593476.0,286046998.8,N
1543593495.8,286046999.3,N
1543593515.7,286047001.2,N
1543593535.5,286046998.6,N
1543593555.4,286046998.2,N
1543593575.2,286046998.2,N
1543593595.0,286047000.0,N
1543593595.9,286047000.0,N
